Wind_Speed
40 42 39 35 33 31 30 21 27 21 24 23 21 19 19 18 18 17 15 15 14 14 14 14 14 14 14 15 16 17 18 17 17 18 20 21 22 24 26 28 29 29 31 32
46 43 38 38 38 36 31 27 27 27 24 26 22 21 18 15 17 16 14 15 15 14 14 13 14 14 14 14 15 16 17 17 18 19 21 22 23 25 26 27 28 30 32 34
47 42 42 45 41 35 31 28 23 27 21 27 24 21 18 18 18 17 16 16 16 14 14 13 13 13 13 14 15 16 16 16 17 19 20 22 24 25 26 29 31 33 35 37
43 45 51 45 39 37 34 30 27 25 29 30 27 24 23 19 16 17 16 17 16 14 13 12 12 12 13 14 15 16 16 16 17 18 21 23 25 27 29 32 34 36 39 41
46 50 48 42 41 36 35 30 27 26 29 30 28 25 24 18 18 18 17 17 15 14 13 12 11 11 13 14 15 15 15 16 18 20 22 24 25 28 31 34 36 39 41 42
47 49 52 45 41 38 37 38 31 28 30 32 31 28 21 21 22 23 20 19 17 16 14 12 10 11 12 13 15 15 16 17 20 22 23 24 26 29 32 35 38 40 42 44
52 50 50 43 46 41 42 36 33 29 29 32 30 24 28 26 27 22 22 22 20 18 17 14 12 11 12 14 16 17 19 20 22 22 24 26 28 31 34 37 39 42 44 46
54 55 50 48 42 41 39 37 32 33 32 31 32 33 32 28 25 22 23 23 22 21 20 18 16 14 14 15 17 19 21 22 23 25 27 29 31 34 37 39 42 44 46 48
55 52 53 48 36 39 38 34 36 37 35 34 34 35 33 30 25 23 25 24 24 23 22 20 19 18 17 17 19 20 22 24 26 28 30 31 34 36 39 42 44 46 48 49
56 56 50 45 41 39 39 43 42 40 38 36 35 35 33 32 28 27 26 25 24 24 23 22 21 21 21 21 22 22 23 24 26 29 32 34 36 39 42 45 46 48 49 51
57 54 50 49 44 43 45 43 42 42 41 40 38 37 37 34 30 28 26 25 24 23 23 23 22 23 23 25 26 27 27 28 30 32 35 37 39 41 45 48 50 51 52 53
60 52 54 47 43 43 45 46 48 46 43 42 40 40 38 37 34 33 31 28 26 25 25 24 24 25 26 27 29 30 32 32 34 36 37 40 41 43 45 49 51 52 53 53
53 60 54 49 44 47 49 50 50 47 46 44 43 42 41 41 39 37 35 32 31 30 29 27 28 27 28 30 31 33 34 35 37 38 39 41 42 44 46 50 52 53 53 55
52 50 58 61 49 50 52 53 52 48 47 46 44 43 43 44 43 41 38 34 35 32 32 32 32 31 31 32 33 34 35 36 38 38 39 41 43 45 46 49 52 53 54 55
53 50 51 46 54 53 51 52 51 50 50 48 46 44 43 43 44 43 42 40 39 37 36 35 35 34 34 35 35 34 36 36 38 39 41 41 43 44 47 49 53 52 53 55
53 47 47 45 44 50 57 53 53 51 50 48 47 46 44 44 44 46 47 45 42 39 39 37 36 35 35 36 36 36 37 37 38 39 40 42 44 47 48 50 52 52 53 54
55 49 48 46 48 48 52 58 54 52 51 50 48 47 47 45 45 45 43 41 40 41 40 38 37 36 37 38 38 36 37 38 39 42 43 44 46 49 48 49 51 51 53 55
45 48 51 46 46 48 49 50 55 55 52 51 49 49 48 47 44 43 41 41 42 41 39 38 39 38 39 39 39 39 39 41 43 44 45 44 47 49 48 49 50 51 52 54
41 38 41 48 46 47 48 48 46 52 55 52 50 49 48 47 47 46 46 45 43 43 42 42 41 41 40 41 42 42 42 43 44 45 44 46 50 47 47 48 49 51 52 53
50 45 41 40 43 45 47 48 48 47 48 54 51 48 48 47 47 46 46 45 46 47 45 43 42 41 42 43 44 44 44 44 45 45 46 48 46 46 46 47 48 50 52 53
54 54 48 44 42 43 44 47 49 48 46 45 49 52 48 47 47 48 47 46 45 44 44 44 44 43 44 43 44 44 44 45 46 45 47 47 45 44 45 46 48 49 51 53
58 54 48 45 45 43 45 49 51 50 47 45 44 47 52 53 50 49 48 48 48 47 46 45 45 43 44 45 45 45 45 44 43 46 47 44 42 43 44 44 47 49 50 52
62 57 51 48 44 44 46 50 51 51 50 47 47 47 46 47 52 54 50 47 46 47 47 48 48 47 48 46 44 44 43 42 46 46 44 40 42 42 42 44 47 48 50 51
61 59 55 51 47 45 44 48 49 50 51 49 47 49 49 48 44 42 45 50 49 48 48 47 45 45 45 42 42 42 44 45 44 41 39 39 40 41 43 45 46 47 49 50
58 57 56 52 49 45 46 47 47 47 48 49 47 46 46 45 43 43 42 43 45 46 46 46 46 45 44 45 45 44 43 43 41 41 40 40 41 42 43 45 46 47 49 49
50 47 51 50 47 49 49 47 44 46 46 46 45 43 41 39 40 41 43 45 46 44 42 40 39 40 41 41 40 40 41 41 42 41 40 41 41 41 44 45 45 46 47 47
36 41 45 49 49 49 48 49 47 44 41 38 36 35 36 36 38 41 41 42 42 41 40 39 39 41 41 40 40 41 41 41 41 41 40 40 40 42 43 44 45 46 46 46
Wind_Direction
223 224 225 225 227 231 237 236 238 232 238 237 234 231 231 229 231 233 235 237 243 249 258 265 272 276 283 290 297 304 306 300 302 306 310 315 317 316 317 317 317 318 319 320
224 227 226 225 226 229 231 234 236 232 233 240 235 232 231 227 228 232 233 239 247 252 260 269 278 284 289 297 300 304 305 303 307 311 311 311 313 315 317 320 321 324 326 325
226 225 227 227 225 228 231 232 235 236 237 242 235 232 230 231 232 232 234 241 247 253 261 273 284 293 300 304 306 304 304 304 305 305 308 311 316 317 320 324 327 329 328 327
224 225 227 227 224 224 227 229 231 230 231 238 236 233 232 235 235 237 238 243 250 254 263 275 287 297 306 308 308 304 304 306 309 311 313 316 317 321 324 326 329 331 331 330
222 225 230 226 225 226 229 231 233 233 233 235 238 237 237 234 234 238 241 248 251 257 263 274 287 299 306 308 306 305 307 309 311 313 315 318 321 322 324 327 330 332 331 331
226 227 228 225 221 221 224 225 227 232 235 236 236 239 244 238 236 238 242 248 251 255 260 269 281 295 302 304 303 303 306 308 311 314 315 316 319 322 325 327 330 331 331 332
226 229 231 223 224 219 223 227 226 231 236 239 240 237 235 234 239 243 247 250 252 255 259 265 276 289 299 302 301 304 306 308 311 315 317 320 323 325 327 328 329 331 332 332
228 228 230 228 224 222 223 223 225 230 235 237 235 235 237 240 244 242 246 249 251 255 259 263 271 282 294 300 301 302 305 307 311 313 317 320 323 326 327 328 330 331 332 332
232 234 234 234 225 223 222 218 220 226 230 232 235 237 239 242 241 242 245 245 250 255 258 263 268 274 281 291 297 301 305 308 311 314 317 321 325 327 329 330 330 331 333 333
230 229 230 228 224 222 223 224 223 226 229 232 234 235 237 240 242 241 245 248 251 252 258 261 267 272 277 283 289 295 301 306 310 314 317 320 324 327 330 331 331 332 333 332
229 232 229 229 223 221 222 224 224 226 228 229 234 236 236 239 239 241 243 246 252 255 258 262 267 271 276 279 283 288 295 299 304 309 313 316 320 324 328 330 331 332 332 332
228 230 233 231 225 224 224 227 227 227 228 229 231 234 235 235 235 240 245 248 254 258 261 263 267 271 275 278 282 286 290 295 300 304 308 313 317 320 323 327 330 330 330 330
232 227 233 229 224 224 226 228 230 228 229 231 233 233 234 236 236 239 245 249 255 257 258 262 267 272 274 278 281 285 290 295 298 302 305 310 315 318 319 323 327 328 328 328
231 231 230 230 226 225 227 229 231 232 232 231 231 233 234 235 237 241 244 247 249 252 255 260 265 269 273 276 280 284 290 294 297 301 305 309 314 317 317 320 325 326 326 327
231 231 232 230 227 226 228 229 230 232 233 234 236 236 235 235 236 238 241 242 247 252 256 260 262 267 271 275 278 282 291 295 298 302 306 310 314 317 318 320 323 324 325 326
229 229 231 230 228 226 227 229 230 231 234 234 235 238 239 237 236 237 240 244 250 252 253 257 263 267 270 273 275 282 290 295 299 302 304 306 312 317 317 319 322 323 324 324
232 229 232 228 227 226 229 227 228 231 233 233 234 235 238 239 241 241 242 243 246 249 253 257 260 264 266 272 272 282 288 293 298 303 304 304 309 316 315 319 320 321 323 325
233 232 231 231 228 229 229 230 227 228 230 232 233 234 236 238 241 243 243 243 245 248 253 255 259 263 266 269 270 280 286 290 294 299 303 304 309 314 314 317 318 320 322 325
232 230 231 233 232 230 231 233 231 231 230 232 234 235 236 238 239 241 244 247 250 252 256 258 261 264 266 268 269 277 283 287 291 296 300 303 310 310 313 315 316 319 322 324
232 230 226 225 226 229 229 231 231 231 233 233 234 237 237 239 241 244 247 249 250 252 255 260 263 265 266 269 272 276 282 287 291 295 299 304 307 308 311 313 315 318 321 324
230 229 228 223 219 221 225 229 232 232 232 232 233 235 238 239 240 242 244 248 252 254 256 258 261 263 266 269 273 277 282 287 290 293 300 303 302 306 309 311 315 318 320 323
230 233 232 221 216 218 223 227 229 231 230 230 233 235 236 237 240 242 244 246 248 252 256 259 261 264 266 268 274 279 282 285 287 294 299 299 302 305 306 309 314 317 320 323
230 230 231 232 227 219 221 224 227 229 229 228 231 234 238 240 241 242 244 247 251 253 254 256 259 263 267 272 275 277 281 282 289 294 295 297 301 303 305 310 315 317 320 323
229 228 228 229 229 228 226 226 226 226 227 228 229 231 235 239 241 245 248 250 250 253 256 260 262 264 267 271 272 275 279 285 290 292 292 297 300 301 305 311 314 317 320 322
228 228 227 228 226 227 227 230 228 226 228 228 229 231 234 237 240 244 248 251 254 257 259 261 263 267 270 273 276 280 282 285 287 291 290 293 297 299 305 310 313 316 318 321
225 226 226 223 221 221 224 229 233 232 230 231 232 235 236 239 242 245 248 251 253 258 262 266 270 273 275 277 279 280 280 282 287 288 288 291 294 299 304 309 312 315 317 320
217 219 219 218 220 221 223 228 231 234 233 232 234 232 234 237 241 242 244 247 251 254 257 262 267 270 273 276 278 278 280 282 283 285 287 290 294 299 303 307 310 313 316 319
Height
5677 5679 5686 5694 5697 5700 5703 5710 5708 5714 5713 5715 5717 5720 5722 5724 5726 5728 5729 5730 5732 5733 5733 5733 5733 5732 5732 5731 5729 5727 5726 5724 5722 5721 5719 5716 5714 5710 5707 5704 5700 5695 5690 5685
5666 5672 5679 5683 5688 5692 5698 5702 5704 5707 5709 5709 5713 5716 5719 5721 5722 5723 5725 5726 5727 5728 5728 5728 5728 5728 5727 5726 5724 5723 5721 5720 5718 5717 5714 5711 5708 5705 5702 5698 5694 5689 5683 5678
5657 5665 5669 5670 5678 5687 5693 5696 5700 5701 5707 5705 5708 5712 5715 5716 5717 5719 5721 5722 5723 5723 5724 5724 5723 5723 5722 5720 5719 5718 5717 5715 5714 5712 5710 5706 5703 5700 5696 5692 5687 5682 5676 5670
5650 5653 5652 5663 5673 5679 5685 5689 5692 5696 5698 5700 5704 5707 5708 5711 5713 5715 5716 5717 5718 5719 5719 5719 5719 5718 5717 5716 5715 5714 5712 5711 5709 5707 5704 5701 5698 5694 5690 5686 5680 5675 5669 5662
5638 5642 5649 5658 5664 5672 5677 5684 5687 5690 5692 5695 5698 5701 5703 5707 5709 5710 5712 5713 5714 5714 5715 5715 5714 5713 5713 5712 5711 5710 5709 5707 5705 5702 5699 5696 5692 5688 5684 5679 5673 5667 5661 5654
5632 5634 5636 5651 5657 5663 5668 5671 5679 5683 5686 5688 5692 5695 5701 5702 5703 5705 5707 5708 5709 5710 5710 5710 5710 5709 5708 5708 5707 5706 5705 5703 5700 5697 5694 5691 5687 5683 5678 5672 5666 5660 5653 5645
5621 5625 5631 5642 5645 5654 5658 5670 5672 5677 5680 5682 5687 5692 5691 5694 5697 5700 5702 5703 5704 5705 5705 5705 5705 5705 5704 5704 5703 5702 5700 5698 5695 5692 5689 5685 5681 5676 5671 5665 5659 5652 5645 5636
5611 5617 5624 5629 5640 5646 5651 5658 5665 5668 5671 5676 5679 5681 5684 5689 5692 5694 5695 5697 5698 5699 5700 5700 5701 5700 5699 5699 5698 5696 5695 5693 5690 5687 5684 5680 5675 5669 5664 5658 5651 5644 5636 5627
5604 5611 5617 5624 5634 5638 5644 5650 5654 5658 5662 5667 5671 5675 5679 5682 5685 5688 5689 5690 5692 5693 5694 5695 5695 5695 5694 5693 5692 5691 5690 5687 5684 5681 5677 5673 5668 5662 5657 5650 5643 5635 5627 5619
5592 5598 5606 5615 5623 5630 5634 5639 5644 5649 5654 5659 5663 5667 5671 5675 5678 5680 5682 5684 5685 5686 5688 5689 5689 5689 5688 5688 5687 5685 5683 5681 5678 5675 5671 5666 5661 5655 5648 5641 5634 5627 5619 5610
5581 5588 5597 5603 5613 5619 5624 5629 5634 5640 5645 5650 5654 5658 5663 5667 5671 5673 5675 5677 5678 5680 5681 5682 5682 5682 5682 5681 5680 5679 5677 5674 5671 5668 5664 5659 5653 5647 5640 5633 5625 5617 5609 5600
5573 5579 5585 5594 5603 5609 5615 5619 5624 5630 5635 5640 5645 5649 5653 5658 5662 5665 5667 5670 5671 5673 5673 5674 5674 5674 5674 5674 5672 5671 5669 5667 5664 5660 5656 5651 5645 5639 5632 5625 5617 5609 5601 5592
5560 5567 5573 5583 5592 5598 5604 5608 5613 5620 5626 5631 5635 5639 5644 5648 5652 5656 5658 5661 5663 5664 5665 5666 5666 5667 5666 5666 5664 5663 5661 5658 5655 5651 5647 5642 5636 5630 5624 5617 5610 5602 5592 5583
5547 5556 5561 5570 5580 5586 5591 5597 5604 5610 5616 5620 5625 5629 5633 5637 5642 5646 5649 5652 5653 5655 5656 5658 5658 5658 5658 5657 5656 5654 5652 5649 5646 5643 5638 5633 5628 5622 5616 5609 5601 5593 5584 5575
5537 5545 5550 5559 5566 5575 5580 5586 5593 5598 5603 5609 5614 5619 5623 5626 5631 5635 5637 5640 5642 5645 5647 5648 5648 5649 5649 5648 5647 5645 5643 5640 5637 5633 5629 5624 5619 5613 5607 5600 5593 5585 5577 5567
5525 5532 5538 5547 5555 5561 5567 5575 5581 5586 5592 5598 5603 5608 5613 5616 5619 5622 5625 5629 5633 5636 5636 5638 5639 5640 5640 5638 5637 5636 5633 5631 5628 5624 5620 5615 5610 5604 5598 5591 5584 5576 5568 5560
5512 5523 5528 5535 5542 5548 5553 5561 5568 5575 5580 5586 5592 5596 5601 5605 5607 5611 5616 5620 5623 5624 5626 5628 5628 5629 5629 5628 5627 5626 5624 5622 5618 5615 5611 5606 5601 5595 5589 5583 5576 5568 5560 5551
5503 5510 5517 5524 5532 5537 5542 5548 5557 5562 5568 5574 5579 5585 5590 5594 5598 5602 5606 5609 5610 5613 5615 5617 5617 5618 5618 5617 5617 5616 5614 5612 5609 5605 5601 5597 5592 5587 5580 5574 5567 5560 5552 5544
5492 5498 5505 5512 5519 5525 5531 5537 5545 5551 5557 5562 5569 5575 5579 5583 5587 5590 5593 5597 5600 5602 5604 5605 5606 5607 5607 5607 5606 5605 5604 5601 5598 5595 5591 5587 5583 5577 5572 5566 5559 5552 5545 5537
5479 5486 5493 5499 5506 5513 5519 5525 5531 5538 5544 5551 5557 5562 5568 5572 5576 5579 5583 5586 5588 5589 5592 5594 5595 5596 5596 5595 5595 5594 5593 5591 5588 5585 5581 5577 5573 5568 5562 5557 5551 5544 5537 5529
5464 5470 5479 5487 5494 5500 5507 5513 5518 5525 5532 5538 5544 5550 5554 5558 5562 5565 5569 5573 5577 5579 5581 5582 5584 5585 5584 5584 5584 5583 5582 5580 5577 5575 5572 5567 5563 5558 5554 5548 5542 5536 5529 5522
5451 5460 5468 5474 5481 5489 5494 5498 5504 5512 5519 5526 5531 5535 5540 5545 5549 5553 5557 5561 5564 5567 5569 5571 5572 5574 5573 5572 5573 5572 5570 5569 5567 5564 5561 5557 5553 5549 5544 5539 5534 5528 5521 5514
5435 5446 5456 5465 5472 5477 5481 5486 5493 5499 5505 5512 5517 5522 5527 5532 5536 5540 5545 5549 5553 5554 5556 5558 5559 5560 5560 5562 5561 5560 5559 5557 5556 5553 5550 5547 5543 5540 5535 5530 5525 5519 5513 5506
5422 5433 5442 5451 5459 5467 5473 5477 5482 5487 5492 5498 5504 5509 5513 5519 5524 5529 5532 5536 5539 5541 5543 5545 5546 5547 5548 5549 5548 5548 5547 5546 5544 5542 5539 5536 5533 5530 5526 5521 5516 5510 5504 5498
5411 5420 5429 5439 5448 5458 5463 5468 5472 5477 5483 5488 5494 5499 5504 5509 5514 5517 5521 5524 5525 5527 5531 5532 5533 5535 5536 5536 5536 5535 5535 5533 5532 5530 5528 5526 5524 5520 5516 5512 5507 5501 5496 5490
5400 5408 5418 5426 5436 5444 5452 5458 5465 5469 5474 5480 5486 5491 5496 5500 5504 5507 5510 5512 5514 5517 5518 5520 5522 5523 5523 5524 5524 5523 5523 5522 5521 5519 5517 5515 5513 5510 5506 5502 5497 5492 5487 5482
5391 5398 5406 5415 5424 5433 5442 5449 5455 5460 5466 5472 5477 5482 5485 5489 5492 5495 5498 5501 5504 5506 5509 5510 5511 5511 5512 5513 5512 5512 5511 5511 5509 5508 5506 5504 5502 5499 5495 5492 5488 5483 5478 5473